Other Surface Observations
Issued by NWS

Home | Current Version | Previous Version | Text Only | Print | Product List | Glossary On
Versions: 1 2 3 4 5 6 7 8 9 10 11 12 13 14 15 16 17 18 19 20 21 22 23 24 25 26 27 28 29 30 31 32 33 34 35 36 37 38 39 40 41 42 43 44 45 46 47 48 49 50
000
SXUS52 KTAE 160118
OSOTAE
OSOTAE
North Florida/South Alabama/Southwest Georgia Weather Roundup
National Weather Service Tallahassee Florida
900 PM EDT MON SEP 15 2014

Note: "fair" indicates few or no clouds below 12,000 feet with no
significant weather and/or obstructions to visibility.

!FLZ017-115-028-034-025-160200
...North Florida...

CITY           SKY/WX    TMP DP  RH WIND       PRES   REMARKS
TALLAHASSEE    CLOUDY    78  74  87 SE3       30.09R
APALACHICOLA   CLOUDY    80  73  79 SW8       30.08S
PERRY          MOCLDY    73  72  94 CALM      30.12R
CROSS CITY       N/A    N/A N/A N/A MISG      30.11R
HOMERVILLE     DRIZZLE   77  75  94 CALM      30.14R
JACKSONVILLE   CLOUDY    75  75 100 CALM      30.11F THUNDER
$$

!FLZ112-006-005-002-011-160200
...Florida Panhandle...

CITY           SKY/WX    TMP DP  RH WIND       PRES   REMARKS
MARIANNA       CLOUDY    79  77  94 CALM      30.07R
BONIFAY        NOT AVBL
PANAMA CITY NW FAIR      81  75  82 CALM      30.06R
TYNDALL AFB    MOCLDY    82  76  82 W12       30.07S
TYND DRONE APT NOT AVBL
DE FUNIAK SPR  FAIR      74  74  98 CALM      30.08R
EGLIN AFB      MOCLDY    83  76  79 W1        30.06R HX  90
DESTIN         MOCLDY    85  76  74 VRB6      30.06R HX  94
HURLBURT       MOCLDY    82  74  75 W6        30.04S
CRESTVIEW      MOCLDY    79  77  94 SW3       30.08R
PENSACOLA      PTCLDY    75  75 100 CALM      30.05S
$$

!ALZ063-066-160200
...South Alabama...

CITY           SKY/WX    TMP DP  RH WIND       PRES   REMARKS
DOTHAN         CLOUDY    77  74  90 CALM      30.11S
OZARK CAIRNS   CLOUDY    79  74  84 E3        30.08R
FT RUCKER HELI MOCLDY    77  72  84 MISG      30.08R
RUCKER HELI 3  MOCLDY    79  73  82 NE5       30.11R
RUCKER HELI 2  MOCLDY    77  74  90 N5        30.08S
FLORALA APT    MOCLDY    78  74  87 CALM      30.09R
ANDALUSIA      MOCLDY    81  73  76 S3        30.08R
TROY           PTCLDY    82  73  74 NE7       30.09R
EUFALA         FAIR      80  70  71 E7        30.09R
MOBILE         MOCLDY    78  76  93 S6        30.08R
$$

!GAZ120>161-160200
...Southwest and South Central Georgia...

CITY           SKY/WX    TMP DP  RH WIND       PRES   REMARKS
THOMASVILLE      N/A     77  77 100 CALM      30.12R
BAINBRIDGE     CLOUDY    79  77  94 CALM      30.08S
MOODY AFB      CLOUDY    74  73  95 NE3       30.13R
VALDOSTA       CLOUDY    76  74  93 CALM      30.13R
MOULTRIE       MOCLDY    75  75 100 CALM      30.13R
BLAKELY        CLOUDY    79  73  83 CALM        N/A
ALBANY         MOCLDY    77  75  93 SE5       30.12R
TIFTON         FAIR      74  73  97 SE3       30.13R
FITZGERALD     CLOUDY    76  74  91 CALM      30.16R
CORDELE        MOCLDY    76  73  91 CALM      30.14R THUNDER
AMERICUS       TSTM      73  72  94 CALM      30.10F
$$

!GMZ750-755-770-775-160200
...Coastal and Buoy Obs...

STATION/POSITION TIME  TEMP    WIND        PRES    VSBY  WAVE
                       AIR SEA DIR/SP/G                  HT/PER
                 (UTC) (F)     (DEG/KT/KT) (MB)    (MI)  (FT/S)
KEATON BEACH     0100   82     240/  4/  5 1019.7R
CEDAR KEY        0057   82     310/  2/  3 1020.3R
C TOWER          0100   82     210/  6/  7 1018.9R
APALACHICOLA BUO 0100   84 85  220/  8/ 10 1019.3R         3/ 5
PANAMA CITY BUOY NOT AVBL
MOBILE BUOY      0021   82 86  250/ 10/ 12 1018.4F         3/ 7
ORANGE BCH AL BU 0100   83 87  230/ 12/ 14 1017.4F         3/ 7
$$



USA.gov is the U.S. government's official web portal to all federal, state and local government web resources and services.